Stony Rapids Airport
CYSF : now visible

Airfield :











YOU CAN JOIN US ON...

 
LOGIN :

Register | Disclaimer

   EN    FR    IT 

 









Legend :    VFR   Marginal VFR   IFR   Intensive IFR   Very Intensive IFR
Visi :
Ceiling :
>= 8 km
>= 3000ft
5 to 8 km
1000 to 3000 ft
1500m to 5 km
500 to 1000 ft
800 to 1500m
200 to 500 ft
< 800m
< 200 ft
Symbols :   Thunderstorms  Fog  Heavy snow  Heavy precipitations  Wind > 20 kt






- Airport Elevation : 805 ft
- IATA code : YSF


CYSF - Stony Rapids

CURRENT METAR :
  • 181200Z AUTO 09003KT 9SM CLR M02/M03 A3003 RMK SLP185

EXPIRED METARs :
  • 181100Z AUTO 13004KT 9SM FEW065 M02/M02 A3005 RMK SLP192
  • 181000Z AUTO 13003KT 9SM OVC065 M02/M02 A3008 RMK SLP201

TAF TAF CYSF
Valid from the 18 at 12:00 until the 19 at 00:00 UTC


181138Z 1812/1824 VRB03KT P6SM SCT060
PROB30 1812/1815 1/2SM FZFG
FM181600 12006KT P6SM FEW060 SCT200 RMK FCST BASED ON AUTO OBS. NXT FCST BY 181800Z
CZEG FIR / North America



MET'MAP, your aeronautical weather chart ! - Copyright ORBIFLY December 2007 - Disclaimer

ORBIFLY MET'MAP TEAM :

Programming & Development : Alexandra Zaïnal
Concept & original design : Baudouin d'Aumeries
Assistance for programming : Marc-Olivier Méhu
Technical & hardware support : Manuel Goepfert

Contact : metmap@orbifly.com




SOURCES & CREDITS :

   NOAA       Earth
Advisory